Regional Weather Roundup
Issued by NWS

Home | Current Version | Previous Version | Graphics & Text | Print | Product List | Glossary On
Versions: 1 2 3 4 5 6 7 8 9 10 11 12 13 14 15 16 17 18 19 20 21 22 23 24 25 26 27 28 29 30 31 32 33 34 35 36 37 38 39 40 41 42 43 44 45 46 47 48 49 50
000
ASUS43 KIND 220509
RWRIN

WEATHER ROUNDUP FOR INDIANA
NATIONAL WEATHER SERVICE INDIANAPOLIS IN
1200 AM EST MON DEC 22 2014

NOTE: "FAIR" INDICATES FEW OR NO CLOUDS BELOW 12,000 FEET WITH NO
SIGNIFICANT WEATHER AND/OR OBSTRUCTIONS TO VISIBILITY.

* - STATION DOES NOT REPORT WEATHER SUCH AS PRECIPITATION OR FOG.

+ - STATION NOT QUALITY CONTROLLED BY THE NATIONAL WEATHER SERVICE.
    USE DATA WITH CAUTION...ESPECIALLY DEWPOINT AND RELATIVE
    HUMIDITY OBSERVATIONS.

INZ001>003-010>013-019-020-220600-
NORTHWEST INDIANA

CITY           SKY/WX    TMP DP  RH WIND       PRES   REMARKS
GARY /AIRPORT/ PTCLDY    34  26  72 SE13      30.05F HAZE    WCI  25
KNOX *+        CLEAR     30  24  77 SE8       30.07F WCI  22
LA PORTE +     PTCLDY    32  28  87 SE7       30.08S FOG     WCI  25
MICHIGAN CITY+ PTCLDY    32  23  69 SE7       30.07F WCI  26
MONTICELLO +   PTCLDY    30  27  88 E3        30.07S
RENSSELAER +   CLEAR     32  32 100 SE9       30.06F FOG     WCI  24
VALPARAISO     CLEAR     30  25  81 SE10      30.07F WCI  21

$$

LMZ046-743>745-220600-
SOUTHERN LAKE MICHIGAN

STATION/POSITION TIME  TEMP WIND        PRES
                       AIR  DIR/SP/G
                 (UTC) (F)  (DEG/KT/KT) (MB)

$$

INZ004-005-014>016-021>024-220600-
NORTH CENTRAL INDIANA

CITY           SKY/WX    TMP DP  RH WIND       PRES   REMARKS
GOSHEN         PTCLDY    29  25  85 SE9       30.10F WCI  20
LOGANSPORT +   FAIR      30  27  86 SE7       30.09S FOG     WCI  23
PERU/GRISSOM   PTCLDY    28  28 100 SE8       30.08F WCI  20
ROCHESTER +    PTCLDY    32  30  93 SE8       30.09F FOG     WCI  25
SOUTH BEND     PTCLDY    31  25  78 SE12      30.09F WCI  22
WARSAW +       PTCLDY    30  27  86 SE6       30.10F FOG     WCI  24

$$

INZ006>009-017-018-025>027-220600-
NORTHEAST INDIANA

CITY           SKY/WX    TMP DP  RH WIND       PRES   REMARKS
ANGOLA *+      CLEAR     27  23  86 SE8       30.11F WCI  18
AUBURN +       PTCLDY    28  25  86 E5        30.13S FOG     WCI  23
FORT WAYNE     PTCLDY    26  23  88 E8        30.12F WCI  18
HUNTINGTON +   PTCLDY    28  25  89 SE5       30.11S WCI  23

$$

INZ028-029-035-036-043>045-051>053-220600-
WEST CENTRAL INDIANA

CITY           SKY/WX    TMP DP  RH WIND       PRES   REMARKS
CRAWFORDSVL +  PTCLDY    28  23  80 SE7       30.05  WCI  21
GREENCASTLE +  PTCLDY    30  25  80 SE6       30.06S WCI  24
LAFAYETTE      PTCLDY    28  25  88 E7        30.06F WCI  21
TERRE HAUTE    PTCLDY    30  26  85 E8        30.05F WCI  22

$$

INZ030>032-037>040-046>048-054>057-064-065-220600-
CENTRAL INDIANA

CITY           SKY/WX    TMP DP  RH WIND       PRES   REMARKS
CP ATTERBURY + MOCLDY    28  27  93 MISG      30.09F
FRANKFORT +    PTCLDY    30  27  90 E12       30.07F FOG     WCI  20
INDIANAPOLIS   MOCLDY    29  25  85 SE10      30.06F WCI  20
-EAGLE CREEK   PTCLDY    30  25  81 SE6       30.06F WCI  24
KOKOMO *+      PTCLDY    28  25  86 SE6       30.09F WCI  22
MARION +       PTCLDY    29  25  84 SE8       30.10F WCI  21
MT COMFORT *+  PTCLDY    30  23  74 SE7       30.08F WCI  23
SHELBYVILLE    PTCLDY    31  26  82 E9        30.08F WCI  23
ZIONSVILLE +   MOCLDY    31  25  80 E7        30.07F WCI  24

$$

INZ033-034-041-042-049-050-058-059-220600-
EAST CENTRAL INDIANA

CITY           SKY/WX    TMP DP  RH WIND       PRES   REMARKS
MUNCIE         MOCLDY    30  25  81 SE9       30.10S WCI  22

$$

INZ060-061-067>069-081>083-085>088-220600-
SOUTHWEST INDIANA

CITY           SKY/WX    TMP DP  RH WIND       PRES   REMARKS
EVANSVILLE     PTCLDY    34  27  75 NE6       30.03F WCI  29
HUNTINGBURG *+ PTCLDY    34  27  75 E6        30.05S WCI  29
WASHINGTON +   CLEAR     32  27  83 SE7       30.04F WCI  25

$$

INZ062-063-066-070>080-084-089>092-220600-
SOUTH CENTRAL AND SOUTHEAST INDIANA

CITY           SKY/WX    TMP DP  RH WIND       PRES   REMARKS
BLOOMINGTON    PTCLDY    30  27  88 CALM      30.06F

$$




USA.gov is the U.S. government's official web portal to all federal, state and local government web resources and services.